RH
41 44 50 71 84 92 87 90 90 85 78 85 90 91 93 81 82 74 72 76 75 75 79 82 83 84 77 73 71 73 76 80 82 86 85 93 92 92 92 93 94 88 77
46 42 48 47 79 81 86 90 82 90 81 87 86 88 92 92 83 78 79 76 71 74 79 83 84 83 78 73 74 80 86 90 89 85 88 95 90 87 88 86 88 86 72
46 46 50 47 45 82 88 83 80 83 81 83 92 96 95 95 94 92 90 77 74 77 79 82 84 88 90 90 91 92 91 93 93 92 94 93 97 95 85 80 80 76 76
47 44 48 45 45 55 89 90 89 90 85 92 93 92 94 93 95 97 97 88 84 88 91 91 92 93 96 95 96 97 97 98 98 96 97 98 96 98 93 89 87 84 74
51 49 52 42 39 46 60 86 95 90 86 88 93 94 96 96 98 98 94 90 94 86 80 78 76 78 78 78 85 91 94 98 99 98 97 94 95 96 99 91 94 92 94
53 50 54 50 49 55 58 56 73 90 94 98 97 96 96 98 96 94 96 92 88 90 89 84 86 85 86 87 91 92 92 95 96 97 97 96 95 95 98 99 97 95 93
62 54 57 55 52 54 56 59 57 66 88 96 97 98 97 96 92 93 93 87 88 91 90 85 82 86 85 86 86 88 91 93 96 96 97 96 96 95 95 96 96 97 96
42 51 60 59 58 60 66 66 62 61 67 78 92 92 95 92 87 85 85 83 80 81 83 82 82 83 81 80 82 88 92 94 96 96 97 98 98 98 98 96 95 99 99
51 48 48 48 49 67 67 72 70 66 66 66 68 71 75 80 86 85 79 81 84 77 78 79 76 81 80 82 85 90 92 95 97 98 97 97 97 98 98 99 98 96 98
50 54 57 54 51 54 70 84 77 70 67 68 68 67 71 69 67 65 68 73 73 71 76 80 82 80 80 82 85 92 94 95 97 98 97 97 98 97 98 98 99 99 99
53 55 59 63 65 72 81 85 84 76 74 74 76 78 76 73 76 79 80 78 76 77 78 80 80 80 79 81 87 89 94 93 94 94 94 96 94 95 95 94 94 96 96
53 59 62 66 67 71 78 80 83 79 79 79 82 82 81 79 85 82 79 75 74 74 73 78 77 78 78 83 82 87 91 91 94 93 93 93 87 88 89 92 92 93 92
52 54 65 70 73 77 78 81 82 84 84 82 86 87 88 88 89 88 83 80 78 76 75 74 77 80 83 85 87 88 89 89 89 88 84 84 88 90 92 93 93 93 90
56 59 61 62 70 77 83 83 81 85 84 85 87 88 88 88 89 88 83 82 83 84 83 82 83 82 86 89 90 92 93 93 93 93 92 91 89 90 92 92 93 92 96
58 60 63 67 67 75 81 84 83 82 82 84 88 88 88 88 88 88 87 86 88 88 88 90 90 89 87 84 90 92 93 90 91 89 88 91 89 83 83 89 92 92 97
64 63 64 67 67 70 76 83 84 84 82 83 84 84 86 87 90 90 90 90 91 92 92 92 91 91 78 77 80 83 92 89 90 93 90 89 86 82 77 76 76 81 92
61 65 68 73 74 74 70 78 83 85 84 83 84 85 86 89 92 92 93 93 93 92 92 92 91 91 85 81 82 84 92 95 98 99 95 87 85 83 80 70 71 69 73
57 57 59 65 72 79 79 79 87 88 84 85 85 86 88 91 92 94 94 94 95 95 95 95 93 93 89 85 84 89 100 100 100 98 93 94 91 82 77 81 84 85 83
60 59 59 66 78 79 81 85 90 90 88 85 85 87 89 92 94 95 95 95 96 97 97 96 95 96 96 86 85 95 100 100 99 92 86 82 77 69 62 76 80 77 79
66 65 62 63 77 76 91 92 92 93 88 83 84 89 90 90 93 94 96 95 96 100 99 100 100 92 99 86 83 93 94 93 89 92 86 79 80 67 62 74 64 68 74
75 72 70 71 75 82 91 91 93 95 88 89 90 91 92 92 93 95 97 97 99 100 100 100 100 99 93 89 77 77 82 73 79 78 78 75 73 69 66 67 61 61 70
77 76 81 80 74 83 92 91 93 90 90 89 90 92 94 92 92 97 100 99 99 99 98 98 98 93 88 85 77 68 68 64 65 63 64 70 67 64 62 67 67 59 65
70 77 82 81 77 82 90 92 89 90 91 91 92 94 95 96 96 98 99 99 98 98 98 98 98 92 89 94 75 66 62 55 59 58 59 61 63 63 63 61 66 65 78
68 64 80 85 85 78 86 90 90 90 93 93 94 96 97 98 98 98 97 98 98 98 98 98 95 88 83 87 86 84 75 62 67 61 72 64 68 67 69 64 61 73 78
74 76 71 87 90 86 78 78 83 88 94 94 95 97 96 95 98 95 96 98 91 90 95 94 90 88 85 80 75 76 87 90 81 78 77 80 81 86 82 77 69 67 70
73 83 80 80 84 81 77 80 78 86 88 91 93 93 94 93 95 98 98 90 89 88 87 84 85 81 76 71 70 69 70 74 77 87 83 80 85 86 81 76 71 65 64
Wind_Speed
7 8 8 7 7 7 7 9 8 8 7 3 4 3 4 4 3 4 6 7 6 7 6 4 5 4 4 5 5 3 4 3 3 1 3 3 5 6 5 3 3 4 4
6 7 9 7 8 12 12 10 12 8 9 5 4 3 4 3 3 3 5 6 8 7 7 6 5 5 4 5 4 3 2 3 2 2 2 4 4 3 3 3 3 2 2
11 8 8 9 8 8 12 14 13 13 10 9 4 2 2 2 3 1 2 4 6 6 6 6 5 4 3 2 1 0 2 3 1 1 2 3 4 2 2 2 2 1 1
7 6 9 11 8 9 5 7 9 10 10 8 8 7 5 5 4 4 3 3 4 4 5 6 5 4 3 1 1 2 2 2 3 2 1 3 3 3 3 2 1 2 1
8 6 8 11 10 8 8 6 5 8 8 9 8 7 3 3 2 3 7 5 2 3 4 5 5 5 3 3 3 2 1 2 2 3 1 1 1 3 4 4 4 2 1
8 6 6 6 3 4 4 5 6 4 2 3 7 8 8 6 2 2 3 4 2 2 2 0 2 4 3 2 1 2 2 3 3 3 3 3 3 2 1 2 4 3 1
2 4 5 6 6 7 8 6 7 7 6 7 6 7 7 8 9 5 4 6 4 3 3 1 2 2 2 4 5 3 3 3 3 4 4 3 4 3 3 3 3 3 2
5 3 2 1 2 5 3 4 6 5 5 5 6 4 4 4 4 5 4 4 5 6 9 6 5 3 3 2 2 1 2 4 4 6 4 3 3 3 3 4 4 3 4
6 7 6 5 3 4 7 7 5 3 5 6 5 4 3 6 6 5 3 2 4 3 4 2 5 5 4 2 2 2 3 3 4 4 4 3 2 2 3 3 3 4 3
7 5 4 3 4 5 5 5 5 6 5 5 5 4 6 3 1 6 9 10 7 6 4 3 1 4 4 2 2 2 3 3 3 1 3 3 2 2 2 2 2 2 2
4 4 3 2 3 3 4 4 4 4 4 4 3 6 5 5 6 5 4 5 5 5 7 4 3 3 3 1 1 3 3 4 4 3 4 5 2 3 1 1 0 0 0
2 3 4 4 4 4 4 3 3 4 4 4 5 6 6 6 6 5 5 6 6 4 5 4 4 2 3 1 1 3 3 4 5 5 4 4 1 0 2 1 1 2 2
8 7 7 7 7 7 6 4 3 5 4 5 6 6 6 6 6 6 5 5 6 5 5 4 4 3 2 3 1 1 1 1 2 1 3 1 2 2 0 1 2 2 2
7 6 6 6 7 6 6 6 4 3 4 5 6 6 6 6 5 6 6 6 6 6 5 4 5 4 2 2 1 2 2 3 3 3 3 2 2 2 2 1 1 2 2
7 6 6 6 6 7 7 5 6 5 5 5 6 6 6 6 6 6 6 5 5 4 5 5 4 4 3 2 1 2 4 3 3 3 3 2 3 4 3 1 1 2 2
6 6 7 8 8 7 7 6 7 7 6 7 7 6 5 5 6 5 5 5 5 5 6 5 5 4 3 5 5 5 3 4 4 4 3 3 5 5 6 6 4 1 3
8 9 10 8 7 8 7 8 8 6 7 7 6 7 7 6 6 6 6 6 6 4 4 4 4 4 3 6 7 6 3 4 4 4 4 3 3 5 4 6 8 6 5
10 10 9 11 9 6 9 7 7 7 9 8 8 7 8 7 6 6 6 4 3 5 4 4 5 4 3 6 5 7 4 3 3 3 3 3 3 3 4 2 5 2 3
8 9 7 9 10 9 8 8 7 7 8 9 9 9 9 8 7 6 6 4 4 3 4 3 5 5 4 7 7 6 4 3 3 3 4 5 5 6 6 5 4 2 2
8 11 12 11 10 11 8 8 8 6 10 11 11 8 8 9 9 7 7 4 3 4 3 3 3 7 4 8 8 5 3 4 4 4 4 10 7 7 7 5 4 4 3
10 10 9 9 10 10 7 8 7 8 6 5 6 7 7 8 8 7 5 5 4 3 4 4 3 4 5 5 10 11 4 4 3 4 3 3 10 8 7 6 4 4 4
10 9 10 10 10 9 6 7 7 6 5 6 7 6 7 6 6 8 5 5 5 5 5 4 3 3 4 10 12 13 11 9 5 5 3 4 9 9 8 6 6 6 5
9 7 9 11 10 9 6 7 6 5 4 4 5 5 6 6 6 7 6 4 6 5 5 5 5 4 4 4 14 14 14 12 5 3 6 9 11 9 7 8 8 8 4
11 11 8 10 12 10 8 7 6 4 4 5 5 5 6 6 5 4 5 6 6 6 5 5 5 5 4 5 5 5 6 13 7 6 5 7 7 6 5 5 4 3 4
11 11 11 6 9 10 10 7 5 4 5 5 5 5 5 8 6 6 7 7 7 9 7 7 7 6 6 7 11 10 5 5 7 5 2 2 2 3 3 3 3 3 3
10 11 12 12 10 10 11 9 5 5 6 5 5 5 5 6 6 5 4 14 14 16 18 14 10 6 10 11 16 18 17 15 14 5 3 4 4 5 5 5 4 4 7
Wind_Direction
236 219 226 228 191 193 181 162 177 195 174 162 158 185 194 186 185 182 199 184 188 185 183 191 195 197 202 207 206 201 218 241 227 246 281 292 272 275 265 279 293 277 242
206 221 215 214 206 201 177 188 192 181 196 183 183 164 159 194 209 190 183 187 198 186 179 184 200 203 211 213 199 189 218 242 220 253 312 306 319 289 305 304 295 204 125
236 216 210 207 212 209 196 194 193 192 196 192 141 115 123 102 133 191 194 195 183 177 184 183 186 185 150 180 165 146 238 266 313 3 205 289 255 308 325 2 33 99 57
240 220 211 210 198 216 187 184 186 192 207 189 183 182 181 189 184 186 185 123 128 164 157 142 148 152 120 140 124 98 179 162 257 319 234 239 222 261 292 335 3 31 112
210 217 213 212 198 191 190 189 215 212 196 194 199 203 198 225 242 168 142 120 210 216 176 155 126 126 133 138 138 124 165 179 207 202 284 274 268 244 235 275 291 320 202
224 225 220 184 181 120 152 140 167 214 183 194 225 189 202 154 216 232 128 129 160 222 261 3 167 132 129 124 96 137 180 224 223 216 213 203 211 229 201 253 252 240 8
227 279 264 184 194 196 195 192 188 194 190 192 192 202 183 180 172 221 187 157 153 186 192 161 154 114 181 159 160 210 215 230 220 215 222 223 228 212 216 210 235 239 228
67 66 296 189 296 266 264 246 205 199 185 206 223 203 195 164 169 182 175 221 193 165 168 163 161 151 203 207 162 217 254 244 249 244 230 237 240 230 228 222 220 219 230
82 69 39 24 357 280 257 232 235 233 188 189 192 196 200 172 161 169 151 138 82 53 333 146 122 155 168 194 196 235 255 257 268 249 240 238 259 255 271 270 227 232 213
72 74 68 12 330 329 315 271 242 230 213 199 180 163 131 88 153 170 170 150 140 118 84 353 208 159 159 167 217 251 252 241 256 247 262 260 256 253 253 272 275 256 253
41 13 25 351 307 320 329 280 242 230 219 179 152 138 124 118 111 102 95 102 113 124 134 183 207 198 155 167 250 267 243 245 256 263 248 251 235 241 216 259 84 165 51
353 312 303 310 307 296 304 304 255 231 211 168 152 148 135 123 119 124 134 134 139 141 139 165 192 177 131 85 346 289 259 249 241 247 240 250 234 77 349 305 72 67 29
33 10 351 321 310 300 293 276 244 239 195 157 149 149 147 140 142 146 136 130 130 126 148 168 184 158 136 136 92 342 225 53 49 66 164 252 159 142 205 109 145 110 64
30 12 2 340 320 290 278 268 249 198 170 164 163 163 165 155 152 149 150 148 148 155 169 166 157 149 158 133 110 108 124 108 89 76 70 57 108 158 155 115 109 94 119
4 342 334 335 334 332 296 277 264 200 176 178 174 184 170 157 153 154 156 148 147 158 160 151 167 171 175 188 183 245 196 169 158 124 105 97 104 118 106 111 95 122 135
333 335 341 343 339 325 314 276 241 232 182 182 190 176 167 159 160 148 147 142 145 154 160 181 193 203 227 190 207 227 224 180 164 137 111 80 77 84 106 108 92 168 186
349 347 338 321 309 310 299 293 255 193 204 189 181 175 167 171 168 160 157 163 169 162 186 200 201 218 214 216 229 218 186 166 157 150 157 135 74 78 46 94 67 53 72
345 340 333 327 315 295 293 287 274 205 195 203 192 180 169 176 173 168 175 167 157 192 192 205 208 197 216 215 196 151 125 123 126 140 172 149 162 158 143 121 104 93 69
326 319 306 307 303 310 305 307 276 215 190 205 203 189 169 165 172 178 174 174 168 198 208 197 199 190 214 189 189 144 136 146 161 187 187 177 179 201 172 156 151 176 95
321 325 326 323 317 313 314 315 285 214 212 205 203 178 170 170 176 174 173 167 150 206 198 221 191 202 190 208 205 165 152 170 178 189 218 209 187 196 176 171 158 188 198
323 323 319 313 307 302 306 308 295 242 240 182 157 169 171 172 169 161 155 165 160 181 193 197 199 206 190 211 196 180 167 174 191 195 207 234 198 200 194 165 166 204 155
314 312 306 304 301 296 301 299 294 278 211 179 178 176 163 160 158 157 157 147 164 194 202 195 201 213 207 216 216 199 198 203 190 209 194 212 215 210 205 189 202 191 152
302 291 292 298 299 293 280 282 272 274 229 187 182 168 153 152 153 153 160 161 190 199 200 198 202 209 209 224 222 218 216 214 207 203 209 207 213 207 217 213 217 216 153
307 311 292 292 298 303 287 245 267 244 209 200 181 165 157 157 155 160 170 181 194 203 202 201 210 210 201 207 217 234 219 219 201 199 216 203 201 191 193 222 241 172 179
304 313 302 292 301 313 310 276 243 198 197 210 197 186 182 183 181 191 186 196 211 208 205 209 208 200 210 211 208 207 205 196 194 170 144 162 184 203 211 219 220 206 202
323 315 307 316 311 311 312 305 259 200 191 198 196 201 199 197 190 191 206 220 220 225 229 224 206 211 224 213 210 215 217 214 205 172 180 199 200 206 208 216 218 211 218